Ketchikan, AK

4:25 PM AKDT on May 25, 2018 (GMT -0800)
Ketchikan International

Weather History for PAKT - May, 2018

Change the Weather History Date:

Wednesday, May 9, 2018

  Actual Average Record
Temperature  
Mean Temperature 50 °F -  
Max Temperature 57 °F 55 °F 74 °F (1975)
Min Temperature 44 °F 38 °F 28 °F (1971)
Degree Days  
Heating Degree Days 16    
Moisture  
Dew Point 49 °F    
Average Humidity 88    
Maximum Humidity 97    
Minimum Humidity 75    
Precipitation  
Precipitation 0.15 in - - ()
Sea Level Pressure  
Sea Level Pressure 29.81 in    
Wind  
Wind Speed 6 mph (SE)    
Max Wind Speed 17 mph    
Max Gust Speed 26 mph    
Visibility 9 miles    
Events Rain    
Averages and records for this station are not official NWS values.
T = Trace of Precipitation, MM = Missing Value Source: NWS Daily Summary

Daily Weather History Graph

Daily Weather History Graph

Search for Another Location

Airport or City:

Astronomy

May. 09, 2018 Rise Set
Actual Time 4:48 AM AKDT 8:39 PM AKDT
Civil Twilight 4:02 AM AKDT 9:26 PM AKDT
Nautical Twilight 2:55 AM AKDT 10:33 PM AKDT
Astronomical Twilight 1:15 AM AKDT 12:10 AM AKDT
Moon 3:16 AM AKDT (5/9) 1:20 PM AKDT (5/9)
Length of Visible Light 17h 24m
Length of Day
15h 51m
Waning Crescent, 33% of the Moon is Illuminated
May 9
Waning Crescent
May 15
New
May 21
First Quarter
May 29
Full
Jun 6
Last Quarter

Hourly Weather History & Observations

Time (AKDT) Temp. Windchill Dew Point Humidity Pressure Visibility Wind Dir Wind Speed Gust Speed Precip Events Conditions
12:53 AM 55.9 °F - 48.0 °F 75% 29.79 in 10.0 mi SSW 4.6 mph - N/A   Overcast
1:53 AM 55.9 °F - 48.0 °F 75% 29.76 in 10.0 mi Variable 4.6 mph - N/A   Overcast
2:53 AM 55.9 °F - 48.0 °F 75% 29.73 in 10.0 mi SSE 3.5 mph - N/A   Overcast
3:53 AM 55.9 °F - 48.9 °F 77% 29.71 in 10.0 mi ESE 4.6 mph - N/A   Overcast
4:53 AM 54.0 °F - 48.9 °F 83% 29.70 in 10.0 mi Calm Calm - N/A   Overcast
5:53 AM 54.0 °F - 48.9 °F 83% 29.69 in 10.0 mi Calm Calm - N/A   Overcast
6:11 AM 54.0 °F - 50.0 °F 86% 29.69 in 10.0 mi ESE 4.6 mph - 0.00 in   Overcast
6:53 AM 54.0 °F - 51.1 °F 90% 29.69 in 10.0 mi ESE 3.5 mph - 0.01 in Rain Light Rain
7:53 AM 54.0 °F - 51.1 °F 90% 29.70 in 10.0 mi Calm Calm - 0.01 in Rain Light Rain
8:53 AM 55.0 °F - 53.1 °F 93% 29.72 in 10.0 mi SE 6.9 mph - 0.03 in Rain Light Rain
9:53 AM 53.6 °F - 51.8 °F 94% 29.76 in 3.0 mi SE 12.7 mph - N/A Rain Light Rain
10:53 AM 54.0 °F - 53.1 °F 97% 29.78 in 3.0 mi SE 12.7 mph - 0.10 in Rain Light Rain
11:53 AM 53.6 °F - 51.8 °F 94% 29.80 in 5.0 mi SE 13.8 mph - N/A Rain Light Rain
12:53 PM 53.6 °F - 51.8 °F 94% 29.82 in 10.0 mi SE 17.3 mph - N/A Rain Light Rain
1:53 PM 55.4 °F - 51.8 °F 88% 29.84 in 10.0 mi SE 13.8 mph - N/A   Overcast
2:53 PM 55.4 °F - 51.8 °F 88% 29.85 in 10.0 mi ESE 11.5 mph - N/A Rain Light Rain
3:53 PM 55.4 °F - 51.8 °F 88% 29.85 in 10.0 mi SE 4.6 mph - N/A   Overcast
4:53 PM 55.4 °F - 51.8 °F 88% 29.86 in 9.0 mi East 4.6 mph - N/A Rain Light Rain
5:53 PM 51.8 °F - 46.4 °F 82% 29.90 in 3.0 mi SSE 13.8 mph 26.5 mph N/A Rain Rain
6:53 PM 51.8 °F - 48.2 °F 88% 29.91 in 10.0 mi ESE 15.0 mph - N/A   Overcast
7:53 PM 51.8 °F - 46.4 °F 82% 29.92 in 10.0 mi SE 4.6 mph - N/A   Mostly Cloudy
8:53 PM 48.0 °F - 46.0 °F 93% 29.93 in 10.0 mi South 4.6 mph - N/A   Scattered Clouds
9:53 PM 45.0 °F - 43.0 °F 93% 29.94 in 10.0 mi Calm Calm - N/A   Clear
10:53 PM 44.1 °F - 43.0 °F 96% 29.94 in 10.0 mi Calm Calm - N/A   Clear
11:53 PM 45.0 °F 43.5 °F 44.1 °F 97% 29.94 in 10.0 mi West 3.5 mph - N/A   Partly Cloudy